www.pogodaiklimat.ru

Погода и климат >> Архив погоды >> Россия >> Хабаровский край >> Урми


ПОГОДА в Урми

  • Прогноз погоды в Урми
  • Монитор погоды в Урми

АРХИВ ПОГОДЫ в Урми

Время (UTC), дата Ветер
(напр.,м/с)
 
Видим.   Явления Облачность Т
(С)
Тd
(С)
f
(%)
Тe
(С)
Тes
(С)
Комфортность P
(гПа)
Po
(гПа)
Тmin
(С)
Tmax
(С)
R
(мм)
R24
(мм)
S
(см)
09 11.08 штиль 0 20 км {ливн. осадки, дождь} 10/10 100 м
[Cb cap]
+16.6 +16.0 96 +16 +16 1007.4 984.4 +16.9 10
12 11.08 штиль 0 50 км {ливн. осадки, дождь} 10/10 600 м
[Cb cap]
+14.7 +14.2 97 +14 +14 1007.9 984.7
15 11.08 штиль 0 50 км 9/9 600 м
[Sc]
+14.4 +13.9 97 +14 +14 1007.5 984.2
18 11.08 штиль 0 20 км 10/10 600 м
[Sc]
+13.0 +12.6 97 +12 +12 1006.9 983.5
21 11.08 штиль 0 20 км 9/9 600 м
[Sc]
+13.3 +12.9 97 +13 +13 1007.1 983.8 +12.6
00 12.08 штиль 0 50 км 8/3 600 м
[Sc Ac trans]
+18.4 +15.0 81 +19 +24 1006.7 983.8
03 12.08 С 1 50 км 3/3 600 м
[Cu hum]
+24.2 +15.1 57 +27 +39 жарко 1004.9 982.5
06 12.08 ЮЗ 1 50 км 4/4 600 м
[Cu hum]
+27.2 +15.1 48 +30 +37 душно 1003.9 981.7
09 12.08 ЮВ 1 50 км ясно +23.0 +17.9 73 +28 +30 душно 1004.5 982.0 +27.8
12 12.08 штиль 0 50 км ясно +15.7 +15.1 96 +15 +15 1007.4 984.3
15 12.08 штиль 0 50 км ясно +12.3 +11.9 97 +12 +12 1008.6 985.1
18 12.08 штиль 0 50 км ясно +11.4 +11.1 98 +11 +11 1009.4 985.8
21 12.08 штиль 0 500 м туман ?/? +12.4 +12.0 97 +12 +12 1010.7 987.2 +11.2
00 13.08 З 1 500 м туман ?/? +16.6 +16.1 97 +17 +17 1010.4 987.3
03 13.08 В 1 50 км {туман} 10/0
[Ci fib]
+26.3 +17.0 57 +30 +44 душно 1008.2 985.9
06 13.08 ЮВ 1 50 км {туман} 10/0
[Ci sp]
+28.0 +17.3 52 +32 +41 душно 1006.9 984.8
09 13.08 ЮВ 1 50 км 10/0
[Ci sp]
+24.0 +20.1 79 +30 +30 очень
душно
1007.3 984.9 +28.3
12 13.08 штиль 0 50 км 3/0
[Ci fib]
+17.6 +17.1 97 +18 +18 1008.3 985.3
15 13.08 штиль 0 50 км 9/9 600 м
[Sc]
+15.7 +15.2 97 +15 +15 1008.8 985.6
18 13.08 штиль 0 20 км 10/10 600 м
[Sc]
+14.8 +14.4 97 +14 +14 1007.8 984.6
21 13.08 штиль 0 500 м туман ?/? +15.6 +15.2 97 +15 +15 1007.3 984.2 +14.7
00 14.08 штиль 0 10 км в посл. час туман {дождь} 10/10 100 м
[St]
+18.1 +17.6 97 +18 +18 1006.5 983.6
03 14.08 штиль 0 10 км ливневой дождь 10/10 100 м
[Cb cap]
+19.5 +18.6 95 +22 +22 комфорт 1004.9 982.2
06 14.08 штиль 0 10 км ливневой дождь 10/10 100 м
[Cb cap]
+19.9 +19.2 96 +23 +23 комфорт 1003.9 981.2
09 14.08 ЮВ 1 10 км ливневой дождь 10/10 100 м
[Cb cap]
+17.7 +16.7 94 +19 +19 1004.1 981.3 +20.1 12
12 14.08 штиль 0 50 км {ливн. осадки} 9/9 600 м
[Cb cap]
+15.6 +15.0 96 +15 +15 1005.3 982.2
15 14.08 штиль 0 20 км 10/10 600 м
[Sc]
+14.4 +13.9 97 +14 +14 1004.2 981.1
18 14.08 З 1 20 км 9/0
[Ac trans Ci fib]
+14.3 +13.9 97 +15 +15 1004.7 981.5
21 14.08 З 1 20 км 10/9 600 м
[Sc Ci fib]
+14.2 +13.8 97 +14 +14 1005.2 982.0 +13.4 0.7
00 15.08 З 1 50 км 10/8 600 м
[Sc Ac und]
+16.1 +15.0 93 +17 +17 1004.8 981.8
03 15.08 штиль 0 50 км 9/9 600 м
[Cb cap]
+22.4 +16.7 70 +27 +29 душно 1003.5 981.0
06 15.08 штиль 0 50 км 10/10 600 м
[Sc]
+20.5 +17.6 83 +24 +24 комфорт 1003.7 981.0
09 15.08 штиль 0 50 км 10/10 600 м
[Sc]
+18.9 +17.6 92 +20 +20 1003.8 981.0 +22.4
12 15.08 штиль 0 20 км слаб. ливневой дождь 10/10 600 м
[Cb cap]
+16.9 +16.4 97 +17 +17 1004.3 981.4
15 15.08 штиль 0 10 км слаб. ливневой дождь 10/10 600 м
[Cb cap]
+16.6 +16.1 97 +16 +16 1003.6 980.6
18 15.08 штиль 0 10 км слаб. ливневой дождь 10/10 600 м
[Cb cap]
+16.0 +15.6 97 +16 +16 1002.8 979.8
21 15.08 штиль 0 10 км ливневой дождь 10/10 100 м
[Cb cap]
+15.7 +15.3 97 +15 +15 1002.3 979.3 +15.6 7
00 16.08 штиль 0 4000 м ливневой дождь 10/10 100 м
[Cb cap]
+16.5 +15.9 96 +16 +16 1001.6 978.7
03 16.08 штиль 0 4000 м ливневой дождь 10/10 100 м
[Cb cap]
+17.6 +16.5 93 +18 +18 1000.2 977.4
06 16.08 штиль 0 4000 м ливневой дождь 10/10 100 м
[Cb cap]
+17.0 +16.2 95 +17 +17 999.0 976.2
09 16.08 штиль 0 2000 м ливневой дождь 10/10 100 м
[Cb cap]
+15.8 +15.3 97 +16 +16 998.1 975.2 +17.7 28
12 16.08 штиль 0 2000 м ливневой дождь 10/10 100 м
[Cb cap]
+14.8 +14.4 97 +14 +14 997.8 974.9
15 16.08 штиль 0 2000 м ливневой дождь 10/10 100 м
[Cb cap]
+14.3 +13.9 97 +14 +14 997.3 974.3
18 16.08 штиль 0 4000 м ливневой дождь 10/10 100 м
[Cb cap]
+13.8 +13.4 97 +13 +13 997.3 974.2
21 16.08 штиль 0 20 км слаб. ливневой дождь 10/10 100 м
[Cb cap]
+13.1 +12.8 98 +13 +13 998.0 974.9 +13.1 24
00 17.08 штиль 0 4000 м ливневой дождь 10/10 300 м
[Cb cap]
+13.8 +13.4 97 +13 +13 998.3 975.2
03 17.08 штиль 0 50 км слаб. ливневой дождь 10/10 300 м
[Cb cap]
+15.1 +14.3 95 +15 +15 999.2 976.3
06 17.08 штиль 0 10 км ливневой дождь 10/10 300 м
[Cb cap]
+15.0 +14.2 95 +15 +15 999.3 976.3
09 17.08 штиль 0 50 км {ливн. осадки} 10/10 600 м
[Cb cap]
+14.4 +13.8 96 +14 +14 999.9 976.8 +15.3 19
12 17.08 штиль 0 50 км {ливн. осадки} 10/10 600 м
[Cb cap]
+12.6 +12.1 97 +12 +12 1001.0 977.7
15 17.08 штиль 0 10 км слаб. ливневой дождь 10/10 600 м
[Cb cap]
+12.0 +11.6 97 +11 +11 1002.1 978.8
18 17.08 штиль 0 50 км {ливн. осадки} 10/10 600 м
[Cb cap]
+11.8 +11.4 97 +11 +11 1002.4 979.1
21 17.08 штиль 0 50 км {ливн. осадки} 10/10 600 м
[Cb cap]
+11.5 +11.2 98 +11 +11 1003.3 979.9 +11.3 21
00 18.08 штиль 0 10 км слаб. ливневой дождь 10/10 600 м
[Cb cap]
+13.1 +12.5 96 +13 +13 1004.3 981.0
03 18.08 ЮВ 1 10 км слаб. ливневой дождь 10/10 600 м
[Cb cap]
+14.1 +13.2 94 +14 +14 1005.3 982.1
06 18.08 штиль 0 10 км слаб. ливневой дождь 10/10 600 м
[Cb cap]
+14.3 +13.5 95 +14 +14 1005.2 982.0

 

Местоположение метеостанции Урми (Хабаровский край, Россия): широта 49.40 долгота 133.20 высота над уровнем моря 201 м.

В архиве по умолчанию представлена погода в Урми за последнюю неделю. Архивные данные за месяц целиком и за предыдущие месяцы, начиная с января 2011 года, Вы можете получить, выбрав интересующий диапазон дат из раскрывающегося списка и нажав кнопку "Ввод!".


*Определитесь, кто Вы:
робот инопланетянин человек

Внимание! Время в таблицах - всемирное. Для получения местного времени необходимо прибавить поправку, которая равна 10 ч.

Смотрите также архив погоды в соседних городах и на ближайших метеорологических станциях:

Погода в Верховье Урми (Хабаровский край, Россия) (75 км)
Погода в Биробиджане (Еврейская автономная область, Россия) (78 км)
Погода в Смидовиче (Еврейская автономная область, Россия) (99 км)
Погода в Сутуре (Хабаровский край, Россия) (109 км)
Погода в Куре (Хабаровский край, Россия) (117 км)
Погода в Хабаровск Центре (Еврейская автономная область, Россия) (121 км)
Погода в Литовко (Хабаровский край, Россия) (139 км)
Погода на Хабаровск Мосту (Хабаровский край, Россия) (164 км)
Погода в Облучье (Еврейская автономная область, Россия) (166 км)
Погода в Хабаровске АМС (Хабаровский край, Россия) (167 км)

Пояснения к столбцам:

Ветер - указаны скорость ветра в м/с - средняя за 10 мин, порывы в срок и между сроками (в фигурных скобках) и направление, откуда дует ветер: С - северный, СВ - северо-восточный, В - восточный, ЮВ - юго-восточный, Ю - южный, ЮЗ - юго-западный, З - западный, СЗ - северо-западный.
Видимость - горизонтальная дальность видимости в метрах или километрах. При видимости от 1 до 10 км при отсутствии осадков обычно наблюдается дымка, при ухудшении видимости до 1 км и менее - туман. В сухую погоду видимость может ухудшаться дымом, пылью или мглою.
Явления - указаны атмосферные явления, наблюдавшиеся в срок или в последний час перед сроком; фигурными скобками обозначены явления, наблюдавшиеся между сроками (за 1-3 часа до срока); квадратными скобками обозначены град или гололедные отложения с указанием их диаметра в мм.
Облачность - указаны через наклонную черту общая и нижняя облачность в баллах и высота нижней границы облаков в метрах; квадратными скобками обозначены формы облаков: Ci - перистые, Cs - перисто-слоистые, Cc - перисто-кучевые, Ac - высококучевые, As - высокослоистые, Sc - слоисто-кучевые, Ns - слоисто-дождевые, Cu - кучевые, Cb - кучево-дождевые. Подробнее классификацию облаков см. в Атласе облаков (PDF).
T - Температура воздуха - температура, измеренная на высоте 2 м над землей.
Td - Температура точки росы - температура, при понижении до которой содержащийся в воздухе водяной пар достигнет насыщения.
f - Относительная влажность воздуха - влажноcть воздуха, измеренная на высоте 2 м над землей.
Te - Эффективная температура - температура, которую ощущает одетый по сезону человек в тени. Характеристика душности погоды. При расчете учитывается влияние влажности воздуха и скорости ветра на теплоощущения человека.
Tes - Эффективная температура на солнце - температура, которую ощущает человек, с поправкой на солнечный нагрев. Характеристика знойности погоды. Зависит от высоты солнца над горизонтом, облачности и скорости ветра. Ночью, в пасмурную погоду, а также при ветре 12 м/с и более поправка равна нулю.
P - Атмосферное давление - приведенное к уровню моря атмосферное давление.
Po - Атмосферное давление - измеренное на уровне метеостанции атмосферное давление.
Tmin - Минимальная температура - минимум температуры воздуха на высоте 2 м над землей.
Tmax - Максимальная температура - максимум температуры воздуха на высоте 2 м над землей.
R - Количество осадков - Количество выпавших осадков за период времени, мм. При наведении курсора мыши на число - период времени, за который выпало указанное количество осадков.
R24 - Количество осадков - Количество выпавших осадков за 24 часа, мм.
S - Снежный покров - Высота снежного покрова, см. При наведении курсора мыши на число - состояние снежного покрова и степень покрытия местности в баллах.